Location: Sternwarte ZA, Rosenfeld-Brittheim
(48.2889°N, 8.6789°E)
Time: 20:57:38
(UTC+01:00)

ISS - Pass Details

Date: 16 December 2017
Orbit: 402 x 407 km, 51.6° (Epoch: 23 January)

Event Time Altitude Azimuth Distance (km) Brightness Sun altitude
Rises 18:27:39 0° 282° (WNW) 2,339 1.2 -18.2°
Reaches altitude 10° 18:30:42 10° 251° (WSW) 1,471 0.3 -18.7°
Maximum altitude 18:32:08 12° 225° (SW) 1,335 -0.4 -19.0°
Drops below altitude 10° 18:33:34 10° 199° (SSW) 1,464 -0.6 -19.2°
Enters shadow 18:37:45 -3° 162° (SSE) 2,730 0.3 -19.9°
